Regional Weather Roundup
Issued by NWS

Home | Current Version | Previous Version | Text Only | Print | Product List | Glossary On
Versions: 1 2 3 4 5 6 7 8 9 10 11 12 13 14 15 16 17 18 19 20 21 22 23 24 25 26 27 28 29 30 31 32 33 34 35 36 37 38 39 40 41 42 43 44 45 46 47 48 49 50
000
ASUS43 KDTX 051801
RWRMI
MICHIGAN HOURLY REGIONAL WEATHER ROUNDUP
NATIONAL WEATHER SERVICE DETROIT/PONTIAC MI
200 PM EDT THU MAY 05 2016

NOTE: "FAIR" INDICATES FEW OR NO CLOUDS BELOW 12,000 FEET WITH NO
SIGNIFICANT WEATHER AND/OR OBSTRUCTION TO VISIBILITY.

MIZ047>049-052>055-059>063-066>070-074>076-081>083-051900-
SOUTHEAST LOWER MICHIGAN

CITY           SKY/WX    TMP DP  RH WIND       PRES   REMARKS
ADRIAN         MOSUNNY   64  44  48 NE14G24   29.86F
6HR MIN TEMP:  47; 6HR MAX TEMP:  65;

ALMA           SUNNY     62  46  56 NW14G22   29.93F
ANN ARBOR      MOSUNNY   66  41  40 NE15G23   29.86F
BAD AXE        SUNNY     55  46  72 N10       29.93R
CARO           SUNNY     58  48  68 N12G20    29.91F
DETROIT CITY   PTSUNNY   61  41  47 E13       29.85F
6HR MIN TEMP:  47; 6HR MAX TEMP:  65;

DETROIT        MOSUNNY   65  39  38 N17G24    29.85F
6HR MIN TEMP:  48; 6HR MAX TEMP:  65;

FLINT          SUNNY     61  47  59 N13       29.91S
6HR MIN TEMP:  49; 6HR MAX TEMP:  62;

GROSSE ILE     PTSUNNY   64  45  48 NE13G20   29.83F
HILLSDALE      MOSUNNY   62  37  40 N12G22    29.88S
HOWELL         MOSUNNY   60  49  67 N8G17     29.90S

CITY           SKY/WX    TMP DP  RH WIND       PRES   REMARKS
JACKSON        MOSUNNY   62  44  51 N13G21    29.89F
6HR MIN TEMP:  46; 6HR MAX TEMP:  63;

LAMBERTVILLE   PTSUNNY   64  39  39 NE8G17    29.85S
6HR MIN TEMP:  47; 6HR MAX TEMP:  66;

LANSING        SUNNY     63  48  58 NE12      29.92F
6HR MIN TEMP:  45; 6HR MAX TEMP:  63;

LAPEER         PTSUNNY   64  42  45 NE9       29.89S
6HR MIN TEMP:  45; 6HR MAX TEMP:  64;

MASON          MOSUNNY   62  49  62 N12G17    29.91S
MONROE         MOSUNNY   65  42  42 NE13G21   29.84S
6HR MIN TEMP:  47; 6HR MAX TEMP:  65;

MT. CLEMENS    MOSUNNY   65  40  39 NE16      29.84F
6HR MIN TEMP:  47; 6HR MAX TEMP:  65;

PONTIAC        PTSUNNY   62  43  49 N13G18    29.86F
6HR MIN TEMP:  45; 6HR MAX TEMP:  63;

PORT HOPE        N/A     48  43  82 NW8       29.93S
6HR MIN TEMP:  44; 6HR MAX TEMP:  48;

PORT HURON     SUNNY     61  39  44 N13G23    29.86F
TRI CITIES     SUNNY     63  48  58 VRB6      29.93F
6HR MIN TEMP:  47; 6HR MAX TEMP:  64;

MIDLAND        FAIR      63  46  54 N7        29.92S
6HR MIN TEMP:  45; 6HR MAX TEMP:  64;

TROY           MOSUNNY   65  41  40 N12G21    29.87F
SAGINAW HB     MOSUNNY   59  48  67 N10       29.92F
$$
MIZ043>046-050>051-056>058-064>065-071>073-077>080-051900-
SOUTHWEST LOWER MICHIGAN

CITY           SKY/WX    TMP DP  RH WIND       PRES   REMARKS
BATTLE CREEK   SUNNY     64  44  48 NE12G21   29.91F
6HR MIN TEMP:  45; 6HR MAX TEMP:  64;

BENTON HARBOR  MOSUNNY   49  42  77 NW10      29.98S
6HR MIN TEMP:  45; 6HR MAX TEMP:  50;

BIG RAPIDS     SUNNY     62  41  45 N7        29.94F
6HR MIN TEMP:  40; 6HR MAX TEMP:  62;

COLDWATER      SUNNY     62  44  51 N14G23    29.90S
6HR MIN TEMP:  46; 6HR MAX TEMP:  63;

FREMONT        FAIR      63  39  41 N9        29.95S
6HR MIN TEMP:  39; 6HR MAX TEMP:  63;

HOLLAND        SUNNY    N/A N/A N/A W12       29.97S
GRAND RAPIDS   MOSUNNY   66  45  46 N13       29.93F
6HR MIN TEMP:  45; 6HR MAX TEMP:  66;

IONIA          FAIR      64  42  45 N14G20    29.91F
6HR MIN TEMP:  44; 6HR MAX TEMP:  64;

KALAMAZOO      MOSUNNY   64  46  52 N13       29.93F
6HR MIN TEMP:  46; 6HR MAX TEMP:  65;

LUDINGTON      SUNNY     54  43  66 NW10G16   30.00R
6HR MIN TEMP:  40; 6HR MAX TEMP:  55;

MARSHALL       MOSUNNY   62  45  53 N7G16     29.90S
6HR MIN TEMP:  45; 6HR MAX TEMP:  64;

MOUNT PLEASANT SUNNY     62  47  57 N7        29.93S
MUSKEGON       MOSUNNY   61  45  55 W10       29.96S
6HR MIN TEMP:  42; 6HR MAX TEMP:  63;

$$
MIZ016>042-051900-
NORTHERN LOWER MICHIGAN

CITY           SKY/WX    TMP DP  RH WIND       PRES   REMARKS
ALPENA         SUNNY     62  44  51 VRB7      29.94F
6HR MIN TEMP:  45; 6HR MAX TEMP:  63;

BEAVER ISLAND  SUNNY     54  37  53 NW6       29.99F
6HR MIN TEMP:  40; 6HR MAX TEMP:  55;

BELLAIRE       SUNNY     57  43  59 NW6       29.98S
6HR MIN TEMP:  41; 6HR MAX TEMP:  58;

CADILLAC       MOSUNNY   61  44  54 N3        29.95F
CHARLEVOIX     SUNNY     47  41  79 W10       30.02F
FRANKFORT      SUNNY     52  42  68 N10       30.00S
GAYLORD        MOSUNNY   61  44  53 VRB3      29.95F
6HR MIN TEMP:  41; 6HR MAX TEMP:  61;

GRAYLING       PTSUNNY   62  45  53 CALM      29.95F
HARBOR SPRINGS SUNNY     43  39  86 SW9       29.98F
HOUGHTON LAKE  SUNNY     60  46  59 SW7       29.95F
6HR MIN TEMP:  42; 6HR MAX TEMP:  60;

MANISTEE       SUNNY     48  39  71 NW9       30.00S
OSCODA         SUNNY     58  42  55 NE14      29.93S
6HR MIN TEMP:  45; 6HR MAX TEMP:  59;

PELLSTON       SUNNY     61  43  51 NW9       29.96F
6HR MIN TEMP:  41; 6HR MAX TEMP:  61;

ROGERS CITY    SUNNY     51  42  72 N9        29.97F
TRAVERSE CITY  MOSUNNY   52  42  69 N8        29.98F
6HR MIN TEMP:  42; 6HR MAX TEMP:  55;

$$
MIZ007>008-015-051900-
EASTERN UPPER MICHIGAN

CITY           SKY/WX    TMP DP  RH WIND       PRES   REMARKS
KINROSS          N/A     54  39  58 N13       29.96F
6HR MIN TEMP:  41; 6HR MAX TEMP:  54;

MACKINAC ISLAN SUNNY     51  41  67 W8        29.97F
6HR MIN TEMP:  41; 6HR MAX TEMP:  52;

NEWBERRY       SUNNY     57  38  47 N7        29.96F
6HR MIN TEMP:  36; 6HR MAX TEMP:  58;

S. S. MARIE    SUNNY     53  38  56 NW10      29.96F
6HR MIN TEMP:  42; 6HR MAX TEMP:  55;

MUNISING         N/A     46  37  71 NE8       29.99F
6HR MIN TEMP:  38; 6HR MAX TEMP:  46;

$$
MIZ004>006-011>014-085-051900-
CENTRAL UPPER MICHIGAN

CITY           SKY/WX    TMP DP  RH WIND       PRES   REMARKS
MANISTIQUE     SUNNY     56  38  50 S9        29.98S
6HR MIN TEMP:  37; 6HR MAX TEMP:  57;

ESCANABA       SUNNY     54  37  54 S10       29.99F
6HR MIN TEMP:  34; 6HR MAX TEMP:  54;

MENOMINEE      SUNNY     54  36  50 NE10      30.01F
6HR MIN TEMP:  37; 6HR MAX TEMP:  54;

SAWYER-GWINN   SUNNY     55  34  44 CALM      30.00F
$$
MIZ001>003-009>011-084-051900-
WESTERN UPPER MICHIGAN

CITY           SKY/WX    TMP DP  RH WIND       PRES   REMARKS
IRON MOUNTAIN  SUNNY     62  25  24 CALM      29.96F
6HR MIN TEMP:  34; 6HR MAX TEMP:  62;

HOUGHTON       SUNNY     62  28  27 W12       29.94F
6HR MIN TEMP:  36; 6HR MAX TEMP:  62;

COPPER HARBOR    N/A     45  38  76 CALM      29.96F
6HR MIN TEMP:  36; 6HR MAX TEMP:  46;

IRONWOOD       SUNNY     64  28  25 W12       29.92F
$$

ABBREVIATIONS USED IN REMARKS
   TC - TEMPERATURE IN CELSIUS
  WCI - WIND CHILL INDEX
   HX - HEAT INDEX
  VSB - VISIBILITY




USA.gov is the U.S. government's official web portal to all federal, state and local government web resources and services.